sat.trackr.live / text

‹ back to catalog

STARLINK-1167

NORAD 45071 · 2020-006AD

PAYLOAD ACTIVE UNKNOWN

§ Identity

Operator
Country
US
Launch date
2020-01-29
Launch site
AFETR
Launch vehicle
Mass (kg)
RCS (m²)

Purposes: comms

External: N2YO · Heavens-Above · Gunter

§ Orbital elements

Epoch: 2026-05-25T01:14:01.275360Z

Period
93.75 min
Inclination
53.1570°
Eccentricity
0.0002539
Mean motion
15.36002256 rev/d
Perigee alt
456.2 km
Apogee alt
459.7 km
Semi-major
6,836.1 km
B*
1.2258e-3
RAAN
261.7893°
Arg perigee
258.2311°
Mean anomaly
101.8407°
Rev number
34,858

§ Raw data

STARLINK-11671 45071U 20006AD  26145.05140365  .00043461  00000+0  12258-2 0  99942 45071  53.1570 261.7893 0002539 258.2311 101.8407 15.36002256348586

JSON: /api/v1/satellites/45071 · /tle

For live sub-satellite position, see the globe view (requires WebGL).

§ Visibility from observer

Set your observer location to see the next 7 days of passes ≥ 10°. The values pass through the URL so the page stays shareable.

No JS? Fill the form by hand. The geolocation button needs JavaScript.